Arroyo Seco, NM

1:43 AM MDT on September 30, 2016 (GMT -0600)
Taos Municipal

Weather History for KSKX - November, 2014

Change the Weather History Date:

Tuesday, November 11, 2014

  Actual Average Record
Temperature  
Mean Temperature 42 °F -  
Max Temperature 55 °F 49 °F 69 °F (1999)
Min Temperature 30 °F 21 °F 12 °F (1998)
Degree Days  
Heating Degree Days 22    
Moisture  
Dew Point 18 °F    
Average Humidity 35    
Maximum Humidity 48    
Minimum Humidity 25    
Precipitation  
Precipitation 0.00 in - - ()
Sea Level Pressure  
Sea Level Pressure 29.96 in    
Wind  
Wind Speed 14 mph (SW)    
Max Wind Speed 23 mph    
Max Gust Speed 30 mph    
Visibility 10 miles    
Events      
Averages and records for this station are not official NWS values.
T = Trace of Precipitation, MM = Missing Value Source: NWS Daily Summary

Daily Weather History Graph

Daily Weather History Graph

Search for Another Location

Airport or City:

Trip Planner

Search our weather history database for the weather conditions in past years. The results will help you decide how hot, cold, wet, or windy it might be!

Date:

Astronomy

Nov. 11, 2014 Rise Set
Actual Time 6:36 AM MST 4:56 PM MST
Civil Twilight 6:08 AM MST 5:24 PM MST
Nautical Twilight 5:37 AM MST 5:55 PM MST
Astronomical Twilight 5:07 AM MST 6:25 PM MST
Moon 9:22 PM MST (11/11) 10:44 AM MST (11/11)
Length of Visible Light 11h 15m
Length of Day
10h 20m
Waning Gibbous, 76% of the Moon is Illuminated
Nov 11
Waning Gibbous
Nov 14
Last Quarter
Nov 22
New
Nov 29
First Quarter
Dec 6
Full

Hourly Weather History & Observations

Time (MST) Temp. Windchill Dew Point Humidity Pressure Visibility Wind Dir Wind Speed Gust Speed Precip Events Conditions
12:15 AM 44.6 °F 37.4 °F 17.6 °F 34% 29.90 in 10.0 mi SW 16.1 mph - N/A   Clear
12:35 AM 44.6 °F 37.2 °F 15.8 °F 31% 29.90 in 10.0 mi SW 17.3 mph - N/A   Clear
12:55 AM 44.6 °F 36.9 °F 15.8 °F 31% 29.90 in 10.0 mi SW 18.4 mph - N/A   Clear
1:15 AM 42.8 °F 35.1 °F 15.8 °F 34% 29.90 in 10.0 mi SW 16.1 mph - N/A   Clear
1:35 AM 42.8 °F 35.4 °F 15.8 °F 34% 29.91 in 10.0 mi SW 15.0 mph - N/A   Clear
1:55 AM 42.8 °F 35.4 °F 15.8 °F 34% 29.92 in 10.0 mi SW 15.0 mph - N/A   Clear
2:15 AM 42.8 °F 35.4 °F 15.8 °F 34% 29.91 in 10.0 mi WSW 15.0 mph - N/A   Clear
2:35 AM 41.0 °F 33.9 °F 15.8 °F 36% 29.92 in 10.0 mi WSW 12.7 mph - N/A   Clear
2:55 AM 39.2 °F 30.8 °F 15.8 °F 39% 29.93 in 10.0 mi WSW 15.0 mph 19.6 mph N/A   Clear
3:15 AM 39.2 °F 32.0 °F 15.8 °F 39% 29.94 in 10.0 mi WSW 11.5 mph 19.6 mph N/A   Clear
3:35 AM 39.2 °F 31.2 °F 14.0 °F 36% 29.94 in 10.0 mi WSW 13.8 mph - N/A   Clear
3:55 AM 39.2 °F 31.2 °F 14.0 °F 36% 29.94 in 10.0 mi WSW 13.8 mph - N/A   Clear
4:15 AM 37.4 °F 29.8 °F 12.2 °F 36% 29.95 in 10.0 mi WSW 11.5 mph - N/A   Clear
4:35 AM 37.4 °F 29.3 °F 12.2 °F 36% 29.95 in 10.0 mi WSW 12.7 mph - N/A   Clear
4:55 AM 35.6 °F 28.6 °F 12.2 °F 38% 29.96 in 10.0 mi West 9.2 mph - N/A   Clear
5:15 AM 35.6 °F 28.0 °F 12.2 °F 38% 29.96 in 10.0 mi WSW 10.4 mph - N/A   Clear
5:35 AM 35.6 °F 29.2 °F 10.4 °F 35% 29.96 in 10.0 mi SSW 8.1 mph - N/A   Clear
5:55 AM 30.2 °F 21.3 °F 10.4 °F 44% 29.97 in 10.0 mi ESE 10.4 mph - N/A   Clear
6:15 AM 37.4 °F 30.8 °F 10.4 °F 33% 29.97 in 10.0 mi SSW 9.2 mph - N/A   Clear
6:35 AM 35.6 °F 27.5 °F 10.4 °F 35% 29.97 in 10.0 mi South 11.5 mph - N/A   Clear
6:55 AM 35.6 °F 27.1 °F 10.4 °F 35% 29.97 in 10.0 mi South 12.7 mph - N/A   Clear
7:15 AM 35.6 °F 26.6 °F 15.8 °F 44% 29.98 in 10.0 mi SSW 13.8 mph - N/A   Clear
7:35 AM 37.4 °F 28.5 °F 19.4 °F 48% 29.99 in 10.0 mi SW 15.0 mph - N/A   Clear
7:55 AM 39.2 °F 31.6 °F 19.4 °F 45% 30.00 in 10.0 mi SSW 12.7 mph - N/A   Clear
8:15 AM 41.0 °F 32.8 °F 21.2 °F 45% 30.00 in 10.0 mi SW 16.1 mph 20.7 mph N/A   Clear
8:35 AM 42.8 °F 34.0 °F 21.2 °F 42% 30.00 in 10.0 mi SW 20.7 mph 26.5 mph N/A   Clear
8:55 AM 42.8 °F 33.8 °F 21.2 °F 42% 30.01 in 10.0 mi SW 21.9 mph 25.3 mph N/A   Clear
9:15 AM 44.6 °F 36.1 °F 21.2 °F 39% 30.00 in 10.0 mi SW 21.9 mph 29.9 mph N/A   Clear
9:35 AM 46.4 °F 38.3 °F 21.2 °F 37% 30.00 in 10.0 mi SW 23.0 mph 26.5 mph N/A   Clear
9:55 AM 46.4 °F 39.8 °F 21.2 °F 37% 30.01 in 10.0 mi SW 16.1 mph - N/A   Clear
10:15 AM 46.4 °F 40.1 °F 21.2 °F 37% 30.01 in 10.0 mi SW 15.0 mph 21.9 mph N/A   Clear
10:35 AM 48.2 °F - 21.2 °F 34% 30.01 in 10.0 mi SW 16.1 mph - N/A   Clear
10:55 AM 48.2 °F - 21.2 °F 34% 30.00 in 10.0 mi SW 16.1 mph - N/A   Clear
11:15 AM 50.0 °F - 21.2 °F 32% 29.99 in 10.0 mi SSW 18.4 mph 26.5 mph N/A   Clear
11:35 AM 51.8 °F - 21.2 °F 30% 29.99 in 10.0 mi WSW 15.0 mph 20.7 mph N/A   Clear
11:55 AM 51.8 °F - 21.2 °F 30% 29.97 in 10.0 mi SW 15.0 mph 21.9 mph N/A   Clear
12:15 PM 53.6 °F - 21.2 °F 28% 29.97 in 10.0 mi SW 15.0 mph 23.0 mph N/A   Clear
12:35 PM 53.6 °F - 21.2 °F 28% 29.96 in 10.0 mi WSW 12.7 mph 21.9 mph N/A   Clear
12:55 PM 53.6 °F - 21.2 °F 28% 29.95 in 10.0 mi WSW 19.6 mph 25.3 mph N/A   Clear
1:15 PM 53.6 °F - 21.2 °F 28% 29.95 in 10.0 mi SW 15.0 mph 26.5 mph N/A   Clear
1:35 PM 53.6 °F - 19.4 °F 26% 29.95 in 10.0 mi SW 18.4 mph 25.3 mph N/A   Clear
1:55 PM 53.6 °F - 19.4 °F 26% 29.95 in 10.0 mi WSW 16.1 mph 26.5 mph N/A   Clear
2:15 PM 55.4 °F - 19.4 °F 25% 29.95 in 10.0 mi SW 15.0 mph 25.3 mph N/A   Clear
2:35 PM 55.4 °F - 19.4 °F 25% 29.94 in 10.0 mi SW 13.8 mph 20.7 mph N/A   Clear
2:55 PM 55.4 °F - 19.4 °F 25% 29.94 in 10.0 mi WSW 11.5 mph 23.0 mph N/A   Clear
3:15 PM 55.4 °F - 19.4 °F 25% 29.94 in 10.0 mi SW 12.7 mph 20.7 mph N/A   Clear
3:35 PM 55.4 °F - 19.4 °F 25% 29.94 in 10.0 mi SW 13.8 mph 20.7 mph N/A   Clear
3:55 PM 55.4 °F - 19.4 °F 25% 29.94 in 10.0 mi SW 17.3 mph 23.0 mph N/A   Clear
4:15 PM 53.6 °F - 19.4 °F 26% 29.94 in 10.0 mi SSW 12.7 mph - N/A   Clear
4:35 PM 53.6 °F - 19.4 °F 26% 29.95 in 10.0 mi SSW 8.1 mph - N/A   Clear
4:55 PM 51.8 °F - 19.4 °F 28% 29.95 in 10.0 mi SSW 5.8 mph - N/A   Clear
5:15 PM 48.2 °F - 17.6 °F 30% 29.94 in 10.0 mi South 5.8 mph - N/A   Clear
5:35 PM 46.4 °F 42.4 °F 17.6 °F 32% 29.94 in 10.0 mi South 8.1 mph - N/A   Clear
5:55 PM 44.6 °F 40.7 °F 17.6 °F 34% 29.95 in 10.0 mi SSE 6.9 mph - N/A   Clear
6:15 PM 46.4 °F 43.5 °F 19.4 °F 34% 29.95 in 10.0 mi SSE 5.8 mph - N/A   Clear
6:35 PM 42.8 °F 39.3 °F 17.6 °F 36% 29.96 in 10.0 mi ESE 5.8 mph - N/A   Clear
6:55 PM 44.6 °F 42.2 °F 17.6 °F 34% 29.96 in 10.0 mi SSE 4.6 mph - N/A   Clear
7:15 PM 42.8 °F 40.1 °F 17.6 °F 36% 29.96 in 10.0 mi SSE 4.6 mph - N/A   Clear
7:35 PM 41.0 °F 36.4 °F 15.8 °F 36% 29.95 in 10.0 mi SSE 6.9 mph - N/A   Clear
7:55 PM 41.0 °F 36.4 °F 17.6 °F 39% 29.96 in 10.0 mi South 6.9 mph - N/A   Clear
8:15 PM 44.6 °F 42.2 °F 17.6 °F 34% 29.96 in 10.0 mi SSW 4.6 mph - N/A   Clear
8:35 PM 42.8 °F 39.3 °F 15.8 °F 34% 29.96 in 10.0 mi South 5.8 mph - N/A   Clear
8:55 PM 42.8 °F 40.1 °F 17.6 °F 36% 29.96 in 10.0 mi South 4.6 mph - N/A   Clear
9:15 PM 39.2 °F 35.9 °F 15.8 °F 39% 29.96 in 10.0 mi SE 4.6 mph - N/A   Clear
9:35 PM 37.4 °F 33.8 °F 15.8 °F 41% 29.96 in 10.0 mi SSE 4.6 mph - N/A   Clear
9:55 PM 39.2 °F 35.9 °F 17.6 °F 42% 29.96 in 10.0 mi SW 4.6 mph - N/A   Clear
10:15 PM 39.2 °F 32.5 °F 17.6 °F 42% 29.97 in 10.0 mi WSW 10.4 mph - N/A   Clear
10:35 PM 41.0 °F 34.3 °F 19.4 °F 42% 29.98 in 10.0 mi WSW 11.5 mph - N/A   Clear
10:55 PM 41.0 °F 33.9 °F 19.4 °F 42% 29.98 in 10.0 mi SW 12.7 mph - N/A   Clear
11:15 PM 39.2 °F 32.0 °F 19.4 °F 45% 29.99 in 10.0 mi SW 11.5 mph - N/A   Clear
11:35 PM 39.2 °F 33.6 °F 19.4 °F 45% 29.99 in 10.0 mi WSW 8.1 mph - N/A   Clear
11:55 PM 37.4 °F 28.9 °F 19.4 °F 48% 29.99 in 10.0 mi SW 13.8 mph - N/A   Clear